Location: Waco, TX
(31.5480°N, 97.1670°W)
Time: 22:51:34
(UTC-06:00)

ISS - Pass Details

Date: 18 November 2018
Orbit: 402 x 408 km, 51.6° (Epoch: 17 November)

Event Time Altitude Azimuth Distance (km) Brightness Sun altitude
Rises 04:35:15 0° 316° (NW) 2,316 - -30.5°
Reaches altitude 10° 04:37:20 10° 317° (NW) 1,455 - -30.1°
Maximum altitude 04:40:35 83° 45° (NE) 409 - -29.4°
Exits shadow 04:43:32 12° 133° (SE) 1,325 -0.6 -28.8°
Drops below altitude 10° 04:43:51 10° 134° (SE) 1,451 -0.4 -28.7°
Sets 04:45:55 0° 135° (SE) 2,309 0.7 -28.3°
